Location: Unspecified
(0.0000°N, 0.0000°E)
Time: 10:27:29
(UTC+00:00)

deb Explorer IX - All Passes

Search period start: 26 September 2016 00:00
Search period end: 06 October 2016 00:00
Orbit: 553 x 1125 km, 38.8° (Epoch: 24 September)

Date Brightness Start Highest point End Pass type
(mag) Time Alt. Az. Time Alt. Az. Time Alt. Az.
26 Sep - 04:11:31 10° S 04:15:20 15° SE 04:18:56 10° ESE visible
26 Sep - 05:56:44 10° SW 06:03:28 76° SE 06:09:10 10° NE daylight
26 Sep - 07:46:59 10° W 07:50:41 17° NW 07:54:04 10° N daylight
26 Sep - 16:54:42 10° NNW 16:58:31 25° NE 17:02:48 10° E daylight
26 Sep - 18:40:56 10° WNW 18:45:40 41° SW 18:51:15 10° SSE visible
27 Sep - 03:53:12 10° S 03:57:35 17° SE 04:01:43 10° ESE visible
27 Sep - 05:38:47 10° SW 05:45:41 83° SE 05:51:33 10° NE daylight
27 Sep - 07:29:24 10° WNW 07:32:56 16° NW 07:36:12 10° N daylight
27 Sep - 16:36:58 10° NNW 16:40:49 27° NE 16:45:09 10° E daylight
27 Sep - 18:23:27 10° WNW 18:27:58 36° SW 18:33:14 10° SSE visible
28 Sep - 03:34:56 10° S 03:39:49 19° SE 03:44:24 10° E visible
28 Sep - 05:20:51 10° SW 05:27:52 89° NW 05:33:54 10° NE visible
28 Sep - 07:11:51 10° WNW 07:15:11 15° NW 07:18:16 10° N daylight
28 Sep - 16:19:14 10° NNW 16:23:07 30° NE 16:27:28 10° ESE daylight
28 Sep - 18:06:01 10° W 18:10:18 31° SW 18:15:12 10° SSE visible
29 Sep - 03:16:44 10° S 03:22:02 21° SE 03:27:00 10° E visible
29 Sep - 05:02:55 10° SW 05:10:02 82° NW 05:16:13 10° NE visible
29 Sep - 06:54:20 10° WNW 06:57:25 14° NW 07:00:18 10° NNW daylight
29 Sep - 16:01:30 10° NNW 16:05:24 33° NE 16:09:47 10° ESE daylight
29 Sep - 17:48:36 10° W 17:52:36 27° SW 17:57:09 10° SSE daylight
30 Sep - 02:58:34 10° SSW 03:04:13 23° SE 03:09:33 10° E visible
30 Sep - 04:44:59 10° SW 04:52:11 76° NW 04:58:29 10° NE visible
30 Sep - 06:36:51 10° WNW 06:39:38 13° NW 06:42:16 10° NNW daylight
30 Sep - 15:43:46 10° NNW 15:47:43 36° NE 15:52:05 10° ESE daylight
30 Sep - 17:31:12 10° W 17:34:55 23° SW 17:39:05 10° SSE daylight
01 Oct - 02:40:26 10° SSW 02:46:23 26° SE 02:52:01 10° E visible
01 Oct - 04:27:05 10° SW 04:34:19 69° NW 04:40:44 10° NE visible
01 Oct - 06:19:27 10° WNW 06:21:51 12° NW 06:24:08 10° NNW daylight
01 Oct - 15:26:03 10° NNW 15:30:01 41° NE 15:34:24 10° ESE daylight
01 Oct - 17:13:51 10° W 17:17:14 20° SW 17:20:58 10° S daylight
02 Oct - 02:22:20 10° SSW 02:28:32 28° SE 02:34:27 10° E visible
02 Oct - 04:09:09 10° WSW 04:16:26 64° NW 04:22:57 10° NE visible
02 Oct - 06:02:08 10° WNW 06:04:03 11° NW 06:05:53 10° NNW daylight
02 Oct - 15:08:19 10° NNW 15:12:19 46° NE 15:16:41 10° ESE daylight
02 Oct - 16:56:32 10° W 16:59:34 17° SW 17:02:49 10° S daylight
03 Oct - 02:04:14 10° SSW 02:10:39 31° SE 02:16:50 10° E visible
03 Oct - 03:51:16 10° WSW 03:58:32 59° NW 04:05:08 10° NE visible
03 Oct - 05:45:06 10° NW 05:46:14 10° NW 05:47:21 10° NNW daylight
03 Oct - 14:50:36 10° NW 14:54:37 53° NE 14:58:58 10° ESE daylight
03 Oct - 16:39:19 10° WSW 16:41:53 15° SW 16:44:36 10° S daylight
04 Oct - 01:46:11 10° SSW 01:52:45 34° SE 01:59:09 10° ENE visible
04 Oct - 03:33:23 10° WSW 03:40:36 54° NW 03:47:17 10° NE visible
04 Oct - 14:32:52 10° NW 14:36:56 62° NE 14:41:14 10° ESE daylight
04 Oct - 16:22:12 10° WSW 16:24:11 13° SW 16:26:16 10° S daylight
05 Oct - 01:28:08 10° SSW 01:34:51 37° SE 01:41:27 10° ENE night (unlit)
05 Oct - 03:15:31 10° WSW 03:22:41 50° NW 03:29:24 10° NNE visible
05 Oct - 14:15:08 10° NW 14:19:13 72° NE 14:23:30 10° SE daylight
05 Oct - 16:05:23 10° SW 16:06:30 11° SW 16:07:38 10° SSW daylight
